| time (UTC) | temp F | wind direction | speed MPH | gust MPH | rain 1hr in | rain 24hr in | rain mn in | humidity % | barometer mb |
| 20260831011641 | 94 | 53 | 2.0 | 4.0 | 0.00 | 0.00 | 0.00 | 33 | 1012.1 |
| 20260831011137 | 94 | 38 | 0.0 | 3.0 | 0.00 | 0.00 | 0.00 | 34 | 1012.2 |
| 20260831010633 | 95 | 354 | 1.0 | 3.0 | 0.00 | 0.00 | 0.00 | 33 | 1012.1 |
| 20260831010129 | 95 | 41 | 1.0 | 4.0 | 0.00 | 0.00 | 0.00 | 33 | 1012.0 |
| 20260831005628 | 96 | 37 | 2.0 | 3.0 | 0.00 | 0.00 | 0.00 | 33 | 1012.2 |
| 20260831005124 | 96 | 353 | 2.0 | 3.0 | 0.00 | 0.00 | 0.00 | 33 | 1012.1 |
| 20260831004619 | 97 | 351 | 2.0 | 6.0 | 0.00 | 0.00 | 0.00 | 32 | 1012.1 |
| 20260831004115 | 97 | 187 | 0.0 | 5.0 | 0.00 | 0.00 | 0.00 | 32 | 1012.2 |
| 20260831003611 | 98 | 120 | 3.0 | 4.0 | 0.00 | 0.00 | 0.00 | 32 | 1012.1 |
| 20260831003107 | 98 | 8 | 2.0 | 4.0 | 0.00 | 0.00 | 0.00 | 32 | 1012.0 |
| 20260831002605 | 99 | 120 | 2.0 | 4.0 | 0.00 | 0.00 | 0.00 | 31 | 1012.1 |
| 20260831002100 | 100 | 224 | 1.0 | 2.0 | 0.00 | 0.00 | 0.00 | 30 | 1011.7 |
| 20260831001556 | 100 | 4 | 2.0 | 3.0 | 0.00 | 0.00 | 0.00 | 30 | 1011.8 |
| 20260831001052 | 101 | 222 | 4.0 | 4.0 | 0.00 | 0.00 | 0.00 | 30 | 1012.3 |
| 20260831000548 | 101 | 1 | 2.0 | 6.0 | 0.00 | 0.00 | 0.00 | 29 | 1011.8 |
| 20260831000048 | 103 | 48 | 0.0 | 8.0 | 0.00 | 0.00 | 0.00 | 28 | 1012.1 |
| 20260830235547 | 103 | 165 | 2.0 | 8.0 | 0.00 | 0.00 | 0.00 | 27 | 1012.1 |
| 20260830235042 | 103 | 215 | 4.0 | 6.0 | 0.00 | 0.00 | 0.00 | 26 | 1012.1 |
| 20260830234543 | 104 | 246 | 4.0 | 5.0 | 0.00 | 0.00 | 0.00 | 26 | 1012.0 |
| 20260830234038 | 104 | 231 | 2.0 | 6.0 | 0.00 | 0.00 | 0.00 | 26 | 1011.8 |
| 20260830233533 | 104 | 225 | 2.0 | 17.0 | 0.00 | 0.00 | 0.00 | 26 | 1011.6 |
| 20260830233029 | 105 | 236 | 2.0 | 5.0 | 0.00 | 0.00 | 0.00 | 25 | 1012.0 |
| 20260830232525 | 105 | 126 | 4.0 | 8.0 | 0.00 | 0.00 | 0.00 | 25 | 1011.6 |
| 20260830232021 | 105 | 217 | 3.0 | 6.0 | 0.00 | 0.00 | 0.00 | 25 | 1011.7 |
| 20260830231517 | 105 | 202 | 5.0 | 5.0 | 0.00 | 0.00 | 0.00 | 25 | 1011.5 |
| 20260830231015 | 105 | 210 | 0.0 | 8.0 | 0.00 | 0.00 | 0.00 | 25 | 1011.5 |
| 20260830230511 | 106 | 187 | 2.0 | 6.0 | 0.00 | 0.00 | 0.00 | 25 | 1011.4 |
| 20260830230011 | 106 | 267 | 1.0 | 8.0 | 0.00 | 0.00 | 0.00 | 25 | 1011.5 |
| 20260830225506 | 106 | 262 | 4.0 | 6.0 | 0.00 | 0.00 | 0.00 | 25 | 1011.3 |
| 20260830225006 | 106 | 264 | 3.0 | 6.0 | 0.00 | 0.00 | 0.00 | 25 | 1011.4 |
| 20260830224504 | 107 | 237 | 5.0 | 8.0 | 0.00 | 0.00 | 0.00 | 25 | 1011.6 |
| 20260830224001 | 107 | 143 | 4.0 | 9.0 | 0.00 | 0.00 | 0.00 | 25 | 1011.2 |
| 20260830223458 | 107 | 91 | 2.0 | 6.0 | 0.00 | 0.00 | 0.00 | 25 | 1011.3 |
| 20260830222957 | 106 | 177 | 0.0 | 3.0 | 0.00 | 0.00 | 0.00 | 25 | 1011.4 |
| 20260830222452 | 107 | 224 | 6.0 | 9.0 | 0.00 | 0.00 | 0.00 | 25 | 1011.4 |
| 20260830221948 | 107 | 207 | 5.0 | 7.0 | 0.00 | 0.00 | 0.00 | 25 | 1011.2 |
| 20260830221444 | 106 | 162 | 4.0 | 6.0 | 0.00 | 0.00 | 0.00 | 24 | 1011.6 |
| 20260830220939 | 106 | 223 | 2.0 | 10.0 | 0.00 | 0.00 | 0.00 | 25 | 1011.3 |
| 20260830220439 | 106 | 344 | 2.0 | 7.0 | 0.00 | 0.00 | 0.00 | 25 | 1011.3 |
| 20260830215937 | 107 | 218 | 2.0 | 9.0 | 0.00 | 0.00 | 0.00 | 25 | 1011.4 |
| 20260830215432 | 107 | 198 | 2.0 | 8.0 | 0.00 | 0.00 | 0.00 | 25 | 1011.4 |
| 20260830214927 | 107 | 209 | 7.0 | 7.0 | 0.00 | 0.00 | 0.00 | 25 | 1011.4 |
| 20260830214422 | 107 | 254 | 4.0 | 11.0 | 0.00 | 0.00 | 0.00 | 24 | 1011.3 |
| 20260830213922 | 107 | 330 | 2.0 | 6.0 | 0.00 | 0.00 | 0.00 | 24 | 1011.6 |
| 20260830213418 | 107 | 227 | 3.0 | 11.0 | 0.00 | 0.00 | 0.00 | 24 | 1011.5 |
| 20260830212913 | 107 | 131 | 3.0 | 12.0 | 0.00 | 0.00 | 0.00 | 24 | 1011.4 |
| 20260830212409 | 107 | 280 | 6.0 | 6.0 | 0.00 | 0.00 | 0.00 | 24 | 1011.6 |
| 20260830211908 | 107 | 214 | 4.0 | 13.0 | 0.00 | 0.00 | 0.00 | 24 | 1011.7 |
| 20260830211408 | 106 | 213 | 2.0 | 8.0 | 0.00 | 0.00 | 0.00 | 25 | 1011.6 |
| 20260830210904 | 106 | 226 | 4.0 | 10.0 | 0.00 | 0.00 | 0.00 | 25 | 1011.8 |
| 20260830210403 | 106 | 248 | 7.0 | 12.0 | 0.00 | 0.00 | 0.00 | 24 | 1011.8 |
| 20260830205901 | 107 | 235 | 5.0 | 6.0 | 0.00 | 0.00 | 0.00 | 24 | 1011.7 |
| 20260830205400 | 107 | 342 | 2.0 | 11.0 | 0.00 | 0.00 | 0.00 | 25 | 1011.6 |
| 20260830204856 | 107 | 191 | 4.0 | 9.0 | 0.00 | 0.00 | 0.00 | 24 | 1011.7 |
| 20260830204354 | 107 | 247 | 4.0 | 9.0 | 0.00 | 0.00 | 0.00 | 24 | 1011.7 |
| 20260830203850 | 107 | 273 | 3.0 | 12.0 | 0.00 | 0.00 | 0.00 | 24 | 1012.1 |
| 20260830203347 | 107 | 189 | 4.0 | 8.0 | 0.00 | 0.00 | 0.00 | 24 | 1012.2 |
| 20260830202845 | 107 | 222 | 5.0 | 11.0 | 0.00 | 0.00 | 0.00 | 24 | 1011.8 |
| 20260830202341 | 107 | 251 | 2.0 | 5.0 | 0.00 | 0.00 | 0.00 | 25 | 1011.7 |
| 20260830201837 | 106 | 229 | 6.0 | 11.0 | 0.00 | 0.00 | 0.00 | 24 | 1012.4 |
| 20260830201336 | 107 | 217 | 8.0 | 11.0 | 0.00 | 0.00 | 0.00 | 24 | 1012.3 |
| 20260830200831 | 106 | 226 | 5.0 | 11.0 | 0.00 | 0.00 | 0.00 | 24 | 1012.2 |
| 20260830200331 | 106 | 197 | 4.0 | 8.0 | 0.00 | 0.00 | 0.00 | 24 | 1012.4 |
| 20260830195827 | 106 | 99 | 2.0 | 6.0 | 0.00 | 0.00 | 0.00 | 25 | 1012.5 |
| 20260830195326 | 106 | 219 | 3.0 | 6.0 | 0.00 | 0.00 | 0.00 | 24 | 1012.4 |
| 20260830194825 | 105 | 209 | 2.0 | 10.0 | 0.00 | 0.00 | 0.00 | 25 | 1012.4 |
| 20260830194324 | 106 | 144 | 3.0 | 9.0 | 0.00 | 0.00 | 0.00 | 25 | 1012.5 |
| 20260830193820 | 105 | 129 | 4.0 | 11.0 | 0.00 | 0.00 | 0.00 | 26 | 1012.6 |
| 20260830193319 | 104 | 195 | 4.0 | 13.0 | 0.00 | 0.00 | 0.00 | 27 | 1012.6 |
| 20260830192816 | 105 | 190 | 4.0 | 17.0 | 0.00 | 0.00 | 0.00 | 26 | 1012.7 |
| 20260830192315 | 105 | 116 | 2.0 | 12.0 | 0.00 | 0.00 | 0.00 | 27 | 1012.7 |
| 20260830191811 | 105 | 291 | 4.0 | 12.0 | 0.00 | 0.00 | 0.00 | 26 | 1012.6 |
| 20260830191310 | 105 | 232 | 2.0 | 13.0 | 0.00 | 0.00 | 0.00 | 26 | 1012.8 |
| 20260830190806 | 105 | 101 | 2.0 | 9.0 | 0.00 | 0.00 | 0.00 | 27 | 1012.6 |
| 20260830190301 | 104 | 304 | 2.0 | 6.0 | 0.00 | 0.00 | 0.00 | 28 | 1012.9 |
| 20260830185759 | 103 | 201 | 8.0 | 13.0 | 0.00 | 0.00 | 0.00 | 27 | 1012.7 |
| 20260830185255 | 104 | 231 | 5.0 | 11.0 | 0.00 | 0.00 | 0.00 | 28 | 1013.1 |
| 20260830184755 | 104 | 196 | 4.0 | 11.0 | 0.00 | 0.00 | 0.00 | 28 | 1013.1 |
| 20260830184254 | 103 | 256 | 3.0 | 10.0 | 0.00 | 0.00 | 0.00 | 29 | 1013.3 |
| 20260830183750 | 103 | 212 | 5.0 | 8.0 | 0.00 | 0.00 | 0.00 | 30 | 1013.3 |
| 20260830183244 | 102 | 232 | 3.0 | 11.0 | 0.00 | 0.00 | 0.00 | 31 | 1013.1 |
| 20260830182745 | 102 | 210 | 11.0 | 15.0 | 0.00 | 0.00 | 0.00 | 30 | 1013.4 |
| 20260830182241 | 101 | 242 | 3.0 | 10.0 | 0.00 | 0.00 | 0.00 | 30 | 1013.2 |
| 20260830181737 | 101 | 199 | 6.0 | 17.0 | 0.00 | 0.00 | 0.00 | 31 | 1013.2 |
| 20260830181232 | 101 | 245 | 8.0 | 17.0 | 0.00 | 0.00 | 0.00 | 31 | 1013.5 |
| 20260830180731 | 101 | 193 | 6.0 | 19.0 | 0.00 | 0.00 | 0.00 | 31 | 1013.4 |
| 20260830180226 | 101 | 255 | 2.0 | 9.0 | 0.00 | 0.00 | 0.00 | 32 | 1013.5 |
| 20260830175725 | 101 | 284 | 1.0 | 11.0 | 0.00 | 0.00 | 0.00 | 32 | 1013.7 |
| 20260830175221 | 101 | 173 | 6.0 | 14.0 | 0.00 | 0.00 | 0.00 | 32 | 1013.7 |
| 20260830174715 | 100 | 168 | 4.0 | 10.0 | 0.00 | 0.00 | 0.00 | 32 | 1013.7 |
| 20260830174211 | 100 | 170 | 3.0 | 12.0 | 0.00 | 0.00 | 0.00 | 33 | 1013.6 |
| 20260830173711 | 99 | 291 | 1.0 | 19.0 | 0.00 | 0.00 | 0.00 | 34 | 1013.8 |
| 20260830173206 | 99 | 174 | 4.0 | 7.0 | 0.00 | 0.00 | 0.00 | 34 | 1013.9 |
| 20260830172703 | 99 | 216 | 7.0 | 14.0 | 0.00 | 0.00 | 0.00 | 33 | 1013.9 |
| 20260830172159 | 98 | 198 | 8.0 | 13.0 | 0.00 | 0.00 | 0.00 | 34 | 1014.0 |
| 20260830171659 | 98 | 24 | 2.0 | 13.0 | 0.00 | 0.00 | 0.00 | 35 | 1014.1 |
| 20260830171154 | 98 | 297 | 4.0 | 7.0 | 0.00 | 0.00 | 0.00 | 35 | 1014.3 |
| 20260830170649 | 98 | 87 | 3.0 | 10.0 | 0.00 | 0.00 | 0.00 | 35 | 1014.3 |
| 20260830170148 | 97 | 72 | 2.0 | 10.0 | 0.00 | 0.00 | 0.00 | 36 | 1014.0 |
| 20260830165643 | 97 | 71 | 3.0 | 13.0 | 0.00 | 0.00 | 0.00 | 36 | 1014.2 |
| 20260830165139 | 96 | 209 | 5.0 | 13.0 | 0.00 | 0.00 | 0.00 | 36 | 1014.3 |
| 20260830164635 | 96 | 162 | 3.0 | 12.0 | 0.00 | 0.00 | 0.00 | 36 | 1014.3 |
| 20260830164131 | 96 | 4 | 4.0 | 12.0 | 0.00 | 0.00 | 0.00 | 37 | 1014.6 |
| 20260830163628 | 95 | 211 | 4.0 | 11.0 | 0.00 | 0.00 | 0.00 | 37 | 1014.7 |
| 20260830163127 | 95 | 199 | 8.0 | 19.0 | 0.00 | 0.00 | 0.00 | 37 | 1014.7 |
| 20260830162622 | 95 | 196 | 6.0 | 7.0 | 0.00 | 0.00 | 0.00 | 38 | 1014.7 |
| 20260830162119 | 94 | 234 | 5.0 | 11.0 | 0.00 | 0.00 | 0.00 | 38 | 1014.9 |
| 20260830161618 | 94 | 175 | 3.0 | 13.0 | 0.00 | 0.00 | 0.00 | 39 | 1014.7 |
| 20260830161113 | 94 | 252 | 6.0 | 14.0 | 0.00 | 0.00 | 0.00 | 38 | 1014.6 |
| 20260830160609 | 94 | 250 | 5.0 | 8.0 | 0.00 | 0.00 | 0.00 | 39 | 1014.9 |
| 20260830160104 | 93 | 216 | 6.0 | 15.0 | 0.00 | 0.00 | 0.00 | 39 | 1014.8 |
| 20260830155600 | 92 | 209 | 7.0 | 8.0 | 0.00 | 0.00 | 0.00 | 40 | 1014.7 |
| 20260830155055 | 92 | 179 | 6.0 | 11.0 | 0.00 | 0.00 | 0.00 | 40 | 1014.7 |
| 20260830154550 | 92 | 212 | 3.0 | 17.0 | 0.00 | 0.00 | 0.00 | 41 | 1014.7 |
| 20260830154047 | 92 | 205 | 4.0 | 5.0 | 0.00 | 0.00 | 0.00 | 40 | 1014.6 |
| 20260830153543 | 91 | 173 | 3.0 | 13.0 | 0.00 | 0.00 | 0.00 | 42 | 1014.6 |
| 20260830153042 | 91 | 259 | 5.0 | 9.0 | 0.00 | 0.00 | 0.00 | 41 | 1014.8 |
| 20260830152537 | 90 | 175 | 2.0 | 7.0 | 0.00 | 0.00 | 0.00 | 42 | 1014.6 |
| 20260830152037 | 89 | 197 | 1.0 | 11.0 | 0.00 | 0.00 | 0.00 | 43 | 1014.6 |
| 20260830151536 | 88 | 282 | 1.0 | 8.0 | 0.00 | 0.00 | 0.00 | 44 | 1014.8 |
| 20260830151031 | 88 | 331 | 3.0 | 7.0 | 0.00 | 0.00 | 0.00 | 44 | 1014.6 |
| 20260830150531 | 87 | 140 | 2.0 | 10.0 | 0.00 | 0.00 | 0.00 | 45 | 1014.6 |
| 20260830150026 | 87 | 192 | 2.0 | 11.0 | 0.00 | 0.00 | 0.00 | 46 | 1014.8 |
| 20260830145525 | 86 | 216 | 2.0 | 11.0 | 0.00 | 0.00 | 0.00 | 46 | 1014.7 |
| 20260830145021 | 86 | 358 | 2.0 | 8.0 | 0.00 | 0.00 | 0.00 | 46 | 1014.9 |
| 20260830144516 | 85 | 139 | 3.0 | 4.0 | 0.00 | 0.00 | 0.00 | 47 | 1014.8 |
| 20260830144012 | 85 | 196 | 4.0 | 9.0 | 0.00 | 0.00 | 0.00 | 47 | 1014.8 |
| 20260830143508 | 84 | 208 | 2.0 | 8.0 | 0.00 | 0.00 | 0.00 | 48 | 1015.0 |
| 20260830143006 | 84 | 163 | 4.0 | 6.0 | 0.00 | 0.00 | 0.00 | 48 | 1014.9 |
| 20260830142501 | 83 | 168 | 2.0 | 6.0 | 0.00 | 0.00 | 0.00 | 49 | 1014.9 |
| 20260830141955 | 83 | 247 | 8.0 | 8.0 | 0.00 | 0.00 | 0.00 | 50 | 1015.0 |
| 20260830141451 | 83 | 101 | 2.0 | 5.0 | 0.00 | 0.00 | 0.00 | 50 | 1014.9 |
| 20260830140946 | 82 | 265 | 0.0 | 6.0 | 0.00 | 0.00 | 0.00 | 51 | 1015.0 |
| 20260830140441 | 82 | 255 | 1.0 | 6.0 | 0.00 | 0.00 | 0.00 | 51 | 1015.1 |
| 20260830135940 | 81 | 268 | 4.0 | 5.0 | 0.00 | 0.00 | 0.00 | 51 | 1015.0 |
| 20260830135436 | 81 | 240 | 3.0 | 6.0 | 0.00 | 0.00 | 0.00 | 52 | 1015.4 |
| 20260830134931 | 80 | 135 | 2.0 | 5.0 | 0.00 | 0.00 | 0.00 | 53 | 1015.2 |
| 20260830134427 | 80 | 256 | 3.0 | 6.0 | 0.00 | 0.00 | 0.00 | 53 | 1015.3 |
| 20260830133922 | 80 | 191 | 2.0 | 5.0 | 0.00 | 0.00 | 0.00 | 54 | 1015.5 |
| 20260830133418 | 79 | 193 | 5.0 | 6.0 | 0.00 | 0.00 | 0.00 | 54 | 1015.6 |
| 20260830132919 | 79 | 17 | 2.0 | 5.0 | 0.00 | 0.00 | 0.00 | 55 | 1015.1 |
| 20260830132415 | 79 | 11 | 0.0 | 6.0 | 0.00 | 0.00 | 0.00 | 55 | 1015.3 |
| 20260830131914 | 78 | 97 | 3.0 | 6.0 | 0.00 | 0.00 | 0.00 | 55 | 1015.3 |
| 20260830131413 | 78 | 34 | 2.0 | 5.0 | 0.00 | 0.00 | 0.00 | 57 | 1015.3 |
| 20260830130908 | 78 | 191 | 0.0 | 4.0 | 0.00 | 0.00 | 0.00 | 56 | 1015.3 |
| 20260830130404 | 77 | 277 | 3.0 | 4.0 | 0.00 | 0.00 | 0.00 | 57 | 1015.1 |
| 20260830125902 | 77 | 32 | 0.0 | 3.0 | 0.00 | 0.00 | 0.00 | 58 | 1015.3 |
| 20260830125359 | 77 | 304 | 2.0 | 4.0 | 0.00 | 0.00 | 0.00 | 57 | 1015.3 |
| 20260830124856 | 77 | 52 | 2.0 | 3.0 | 0.00 | 0.00 | 0.00 | 57 | 1015.1 |
| 20260830124351 | 76 | 22 | 2.0 | 4.0 | 0.00 | 0.00 | 0.00 | 58 | 1015.3 |
| 20260830123847 | 76 | 174 | 1.0 | 2.0 | 0.00 | 0.00 | 0.00 | 58 | 1015.3 |
| 20260830123344 | 76 | 101 | 2.0 | 3.0 | 0.00 | 0.00 | 0.00 | 58 | 1015.3 |
| 20260830122841 | 76 | 323 | 3.0 | 6.0 | 0.00 | 0.00 | 0.00 | 58 | 1015.3 |
| 20260830122336 | 76 | 51 | 1.0 | 4.0 | 0.00 | 0.00 | 0.00 | 58 | 1015.2 |
| 20260830121831 | 76 | 12 | 0.0 | 3.0 | 0.00 | 0.00 | 0.00 | 58 | 1015.2 |
| 20260830121331 | 76 | 286 | 2.0 | 4.0 | 0.00 | 0.00 | 0.00 | 58 | 1015.1 |
| 20260830120826 | 76 | 184 | 1.0 | 3.0 | 0.00 | 0.00 | 0.00 | 58 | 1015.0 |
| 20260830120322 | 76 | 164 | 1.0 | 5.0 | 0.00 | 0.00 | 0.00 | 58 | 1015.2 |
| 20260830115818 | 76 | 0 | 0.0 | 4.0 | 0.00 | 0.00 | 0.00 | 58 | 1014.8 |
| 20260830115314 | 76 | 328 | 2.0 | 3.0 | 0.00 | 0.00 | 0.00 | 58 | 1014.7 |
| 20260830114810 | 76 | 173 | 1.0 | 4.0 | 0.00 | 0.00 | 0.00 | 58 | 1015.0 |
| 20260830114306 | 76 | 347 | 2.0 | 2.0 | 0.00 | 0.00 | 0.00 | 58 | 1014.7 |
| 20260830113800 | 76 | 277 | 3.0 | 3.0 | 0.00 | 0.00 | 0.00 | 58 | 1014.8 |
| 20260830113255 | 76 | 41 | 0.0 | 2.0 | 0.00 | 0.00 | 0.00 | 58 | 1015.0 |
| 20260830112751 | 76 | 341 | 2.0 | 4.0 | 0.00 | 0.00 | 0.00 | 59 | 1014.7 |
| 20260830112247 | 76 | 339 | 1.0 | 4.0 | 0.00 | 0.00 | 0.00 | 58 | 1015.1 |
| 20260830111743 | 76 | 14 | 0.0 | 3.0 | 0.00 | 0.00 | 0.00 | 58 | 1014.9 |
| 20260830111238 | 76 | 230 | 0.0 | 3.0 | 0.00 | 0.00 | 0.00 | 58 | 1015.1 |
| 20260830110738 | 76 | 131 | 2.0 | 4.0 | 0.00 | 0.00 | 0.00 | 58 | 1015.0 |
| 20260830110235 | 76 | 345 | 0.0 | 3.0 | 0.00 | 0.00 | 0.00 | 58 | 1015.2 |
| 20260830105733 | 76 | 65 | 0.0 | 2.0 | 0.00 | 0.00 | 0.00 | 58 | 1015.2 |
| 20260830105230 | 76 | 12 | 1.0 | 2.0 | 0.00 | 0.00 | 0.00 | 58 | 1015.0 |
| 20260830104726 | 76 | 9 | 1.0 | 3.0 | 0.00 | 0.00 | 0.00 | 58 | 1015.2 |
| 20260830104223 | 76 | 285 | 1.0 | 3.0 | 0.00 | 0.00 | 0.00 | 58 | 1014.8 |
| 20260830103722 | 76 | 178 | 2.0 | 2.0 | 0.00 | 0.00 | 0.00 | 58 | 1014.6 |
| 20260830103218 | 76 | 114 | 2.0 | 3.0 | 0.00 | 0.00 | 0.00 | 59 | 1014.7 |
| 20260830102715 | 76 | 351 | 2.0 | 2.0 | 0.00 | 0.00 | 0.00 | 58 | 1015.1 |
| 20260830102212 | 76 | 219 | 2.0 | 2.0 | 0.00 | 0.00 | 0.00 | 58 | 1015.0 |
| 20260830101708 | 76 | 89 | 0.0 | 2.0 | 0.00 | 0.00 | 0.00 | 58 | 1015.0 |
| 20260830101203 | 76 | 311 | 0.0 | 4.0 | 0.00 | 0.00 | 0.00 | 58 | 1014.8 |
| 20260830100657 | 76 | 5 | 1.0 | 2.0 | 0.00 | 0.00 | 0.00 | 58 | 1015.1 |
| 20260830100156 | 76 | 88 | 1.0 | 2.0 | 0.00 | 0.00 | 0.00 | 58 | 1014.9 |
| 20260830095655 | 76 | 337 | 0.0 | 4.0 | 0.00 | 0.00 | 0.00 | 58 | 1014.9 |
| 20260830095152 | 76 | 132 | 0.0 | 3.0 | 0.00 | 0.00 | 0.00 | 58 | 1015.0 |
| 20260830094647 | 76 | 344 | 0.0 | 1.0 | 0.00 | 0.00 | 0.00 | 58 | 1014.8 |
| 20260830094143 | 76 | 16 | 1.0 | 2.0 | 0.00 | 0.00 | 0.00 | 57 | 1014.9 |
| 20260830093638 | 77 | 300 | 2.0 | 3.0 | 0.00 | 0.00 | 0.00 | 57 | 1014.8 |
| 20260830093135 | 77 | 209 | 0.0 | 2.0 | 0.00 | 0.00 | 0.00 | 57 | 1015.2 |
| 20260830092629 | 77 | 6 | 1.0 | 3.0 | 0.00 | 0.00 | 0.00 | 56 | 1014.9 |
| 20260830092127 | 77 | 336 | 1.0 | 3.0 | 0.00 | 0.00 | 0.00 | 56 | 1014.9 |
| 20260830091626 | 78 | 326 | 0.0 | 2.0 | 0.00 | 0.00 | 0.00 | 55 | 1014.9 |
| 20260830091126 | 78 | 197 | 3.0 | 3.0 | 0.00 | 0.00 | 0.00 | 54 | 1014.6 |
| 20260830090621 | 78 | 14 | 0.0 | 4.0 | 0.00 | 0.00 | 0.00 | 54 | 1014.5 |
| 20260830090116 | 79 | 302 | 0.0 | 4.0 | 0.00 | 0.00 | 0.00 | 54 | 1014.7 |
| 20260830085615 | 79 | 219 | 0.0 | 2.0 | 0.00 | 0.00 | 0.00 | 53 | 1014.8 |
| 20260830085112 | 79 | 70 | 1.0 | 2.0 | 0.00 | 0.00 | 0.00 | 53 | 1014.9 |
| 20260830084607 | 79 | 180 | 3.0 | 3.0 | 0.00 | 0.00 | 0.00 | 53 | 1014.7 |
| 20260830084107 | 79 | 331 | 0.0 | 3.0 | 0.00 | 0.00 | 0.00 | 52 | 1014.9 |
| 20260830083603 | 80 | 228 | 2.0 | 2.0 | 0.00 | 0.00 | 0.00 | 52 | 1014.7 |
| 20260830083102 | 80 | 263 | 1.0 | 2.0 | 0.00 | 0.00 | 0.00 | 51 | 1015.0 |
| 20260830082557 | 80 | 168 | 0.0 | 3.0 | 0.00 | 0.00 | 0.00 | 51 | 1015.0 |
| 20260830082053 | 80 | 238 | 1.0 | 2.0 | 0.00 | 0.00 | 0.00 | 50 | 1014.7 |
| 20260830081549 | 81 | 203 | 2.0 | 5.0 | 0.00 | 0.00 | 0.00 | 50 | 1014.8 |
| 20260830081048 | 81 | 216 | 2.0 | 4.0 | 0.00 | 0.00 | 0.00 | 50 | 1014.6 |
| 20260830080543 | 81 | 190 | 0.0 | 4.0 | 0.00 | 0.00 | 0.00 | 50 | 1014.6 |
| 20260830080038 | 81 | 158 | 0.0 | 5.0 | 0.00 | 0.00 | 0.00 | 49 | 1014.7 |
| 20260830075538 | 81 | 216 | 3.0 | 6.0 | 0.00 | 0.00 | 0.00 | 49 | 1014.6 |
| 20260830075033 | 81 | 214 | 5.0 | 5.0 | 0.00 | 0.00 | 0.00 | 49 | 1014.6 |
| 20260830074529 | 82 | 42 | 1.0 | 4.0 | 0.00 | 0.00 | 0.00 | 48 | 1014.7 |
| 20260830074025 | 82 | 177 | 1.0 | 6.0 | 0.00 | 0.00 | 0.00 | 48 | 1014.7 |
| 20260830073520 | 82 | 319 | 1.0 | 4.0 | 0.00 | 0.00 | 0.00 | 48 | 1014.8 |
| 20260830073016 | 82 | 334 | 2.0 | 4.0 | 0.00 | 0.00 | 0.00 | 48 | 1014.6 |
| 20260830072511 | 82 | 194 | 2.0 | 4.0 | 0.00 | 0.00 | 0.00 | 48 | 1014.5 |
| 20260830072011 | 82 | 11 | 1.0 | 3.0 | 0.00 | 0.00 | 0.00 | 48 | 1014.6 |
| 20260830071507 | 82 | 292 | 1.0 | 3.0 | 0.00 | 0.00 | 0.00 | 48 | 1014.3 |
| 20260830071004 | 83 | 248 | 1.0 | 3.0 | 0.00 | 0.00 | 0.00 | 47 | 1014.5 |
| 20260830070459 | 83 | 109 | 0.0 | 3.0 | 0.00 | 0.00 | 0.00 | 47 | 1014.6 |
| 20260830065958 | 83 | 2 | 2.0 | 4.0 | 0.00 | 0.00 | 0.00 | 47 | 1014.5 |
| 20260830065458 | 83 | 24 | 1.0 | 3.0 | 0.00 | 0.00 | 0.00 | 46 | 1014.3 |
| 20260830064956 | 83 | 25 | 1.0 | 5.0 | 0.00 | 0.00 | 0.00 | 46 | 1014.7 |
| 20260830064452 | 83 | 271 | 0.0 | 4.0 | 0.00 | 0.00 | 0.00 | 46 | 1014.8 |
| 20260830063952 | 84 | 295 | 2.0 | 3.0 | 0.00 | 0.00 | 0.00 | 46 | 1014.6 |
| 20260830063452 | 84 | 87 | 1.0 | 9.0 | 0.00 | 0.00 | 0.00 | 45 | 1014.7 |
| 20260830062951 | 84 | 216 | 4.0 | 4.0 | 0.00 | 0.00 | 0.00 | 45 | 1014.5 |
| 20260830062450 | 84 | 313 | 2.0 | 4.0 | 0.00 | 0.00 | 0.00 | 45 | 1014.7 |
| 20260830061945 | 84 | 291 | 2.0 | 4.0 | 0.00 | 0.00 | 0.00 | 45 | 1014.8 |
| 20260830061440 | 84 | 44 | 2.0 | 3.0 | 0.00 | 0.00 | 0.00 | 45 | 1014.6 |
| 20260830060937 | 84 | 194 | 3.0 | 4.0 | 0.00 | 0.00 | 0.00 | 45 | 1014.5 |
| 20260830060433 | 84 | 50 | 2.0 | 4.0 | 0.00 | 0.00 | 0.00 | 45 | 1014.6 |
| 20260830055928 | 84 | 1 | 2.0 | 4.0 | 0.00 | 0.00 | 0.00 | 45 | 1014.2 |
| 20260830055424 | 84 | 18 | 2.0 | 2.0 | 0.00 | 0.00 | 0.00 | 45 | 1014.5 |
| 20260830054919 | 84 | 87 | 2.0 | 3.0 | 0.00 | 0.00 | 0.00 | 45 | 1014.6 |
| 20260830054416 | 84 | 279 | 2.0 | 3.0 | 0.00 | 0.00 | 0.00 | 45 | 1014.6 |
| 20260830053910 | 85 | 35 | 3.0 | 3.0 | 0.00 | 0.00 | 0.00 | 44 | 1014.6 |
| 20260830053406 | 85 | 65 | 2.0 | 3.0 | 0.00 | 0.00 | 0.00 | 44 | 1014.6 |
| 20260830052905 | 85 | 50 | 2.0 | 3.0 | 0.00 | 0.00 | 0.00 | 44 | 1014.6 |
| 20260830052401 | 85 | 67 | 2.0 | 2.0 | 0.00 | 0.00 | 0.00 | 44 | 1014.6 |
| 20260830051856 | 85 | 15 | 2.0 | 4.0 | 0.00 | 0.00 | 0.00 | 44 | 1014.7 |
| 20260830051351 | 85 | 334 | 1.0 | 5.0 | 0.00 | 0.00 | 0.00 | 44 | 1014.5 |
| 20260830050850 | 85 | 177 | 0.0 | 2.0 | 0.00 | 0.00 | 0.00 | 43 | 1014.8 |
| 20260830050346 | 86 | 63 | 1.0 | 4.0 | 0.00 | 0.00 | 0.00 | 43 | 1014.7 |
| 20260830045844 | 86 | 151 | 2.0 | 4.0 | 0.00 | 0.00 | 0.00 | 43 | 1015.0 |
| 20260830045339 | 86 | 117 | 0.0 | 4.0 | 0.00 | 0.00 | 0.00 | 43 | 1014.8 |
| 20260830044838 | 86 | 117 | 2.0 | 3.0 | 0.00 | 0.00 | 0.00 | 42 | 1014.6 |
| 20260830044334 | 86 | 87 | 0.0 | 3.0 | 0.00 | 0.00 | 0.00 | 42 | 1014.7 |
| 20260830043829 | 86 | 327 | 3.0 | 5.0 | 0.00 | 0.00 | 0.00 | 42 | 1014.6 |
| 20260830043329 | 87 | 251 | 2.0 | 4.0 | 0.00 | 0.00 | 0.00 | 42 | 1014.7 |
| 20260830042827 | 87 | 287 | 1.0 | 5.0 | 0.00 | 0.00 | 0.00 | 41 | 1014.7 |
| 20260830042322 | 87 | 63 | 1.0 | 4.0 | 0.00 | 0.00 | 0.00 | 41 | 1014.6 |
| 20260830041821 | 87 | 158 | 2.0 | 5.0 | 0.00 | 0.00 | 0.00 | 41 | 1014.5 |
| 20260830041320 | 87 | 7 | 1.0 | 4.0 | 0.00 | 0.00 | 0.00 | 41 | 1014.6 |
| 20260830040816 | 87 | 7 | 0.0 | 5.0 | 0.00 | 0.00 | 0.00 | 41 | 1014.5 |
| 20260830040312 | 87 | 42 | 0.0 | 3.0 | 0.00 | 0.00 | 0.00 | 41 | 1014.6 |
| 20260830035811 | 87 | 126 | 3.0 | 4.0 | 0.00 | 0.00 | 0.00 | 40 | 1014.5 |
| 20260830035310 | 87 | 86 | 2.0 | 4.0 | 0.00 | 0.00 | 0.00 | 41 | 1014.8 |
| 20260830034806 | 87 | 96 | 2.0 | 4.0 | 0.00 | 0.00 | 0.00 | 40 | 1014.3 |
| 20260830034306 | 87 | 71 | 2.0 | 4.0 | 0.00 | 0.00 | 0.00 | 41 | 1014.7 |
| 20260830033802 | 87 | 320 | 0.0 | 2.0 | 0.00 | 0.00 | 0.00 | 40 | 1014.5 |
| 20260830033302 | 87 | 100 | 2.0 | 4.0 | 0.00 | 0.00 | 0.00 | 40 | 1014.5 |
| 20260830032757 | 88 | 95 | 0.0 | 2.0 | 0.00 | 0.00 | 0.00 | 39 | 1014.7 |
| 20260830032251 | 88 | 61 | 3.0 | 3.0 | 0.00 | 0.00 | 0.00 | 39 | 1014.8 |
| 20260830031746 | 88 | 82 | 1.0 | 3.0 | 0.00 | 0.00 | 0.00 | 39 | 1014.3 |
| 20260830031241 | 88 | 347 | 1.0 | 3.0 | 0.00 | 0.00 | 0.00 | 38 | 1014.2 |
| 20260830030737 | 88 | 71 | 3.0 | 3.0 | 0.00 | 0.00 | 0.00 | 38 | 1014.2 |
| 20260830030233 | 88 | 103 | 1.0 | 4.0 | 0.00 | 0.00 | 0.00 | 38 | 1014.3 |
| 20260830025732 | 88 | 63 | 1.0 | 3.0 | 0.00 | 0.00 | 0.00 | 38 | 1014.0 |
| 20260830025231 | 89 | 32 | 2.0 | 4.0 | 0.00 | 0.00 | 0.00 | 38 | 1014.1 |
| 20260830024731 | 88 | 243 | 0.0 | 3.0 | 0.00 | 0.00 | 0.00 | 38 | 1014.3 |
| 20260830024226 | 89 | 337 | 2.0 | 2.0 | 0.00 | 0.00 | 0.00 | 38 | 1014.3 |
| 20260830023723 | 89 | 195 | 2.0 | 3.0 | 0.00 | 0.00 | 0.00 | 38 | 1014.3 |
| 20260830023223 | 89 | 269 | 1.0 | 2.0 | 0.00 | 0.00 | 0.00 | 38 | 1014.1 |
| 20260830022723 | 89 | 54 | 0.0 | 3.0 | 0.00 | 0.00 | 0.00 | 38 | 1013.9 |
| 20260830022218 | 89 | 74 | 2.0 | 2.0 | 0.00 | 0.00 | 0.00 | 38 | 1013.9 |
| 20260830021713 | 89 | 111 | 0.0 | 4.0 | 0.00 | 0.00 | 0.00 | 38 | 1013.9 |
| 20260830021208 | 89 | 14 | 1.0 | 2.0 | 0.00 | 0.00 | 0.00 | 38 | 1013.8 |
| 20260830020707 | 89 | 73 | 0.0 | 4.0 | 0.00 | 0.00 | 0.00 | 38 | 1013.6 |
| 20260830020202 | 90 | 15 | 2.0 | 3.0 | 0.00 | 0.00 | 0.00 | 37 | 1013.7 |
| 20260830015701 | 90 | 64 | 0.0 | 3.0 | 0.00 | 0.00 | 0.00 | 37 | 1013.6 |
| 20260830015158 | 91 | 359 | 0.0 | 2.0 | 0.00 | 0.00 | 0.00 | 36 | 1013.7 |
| 20260830014653 | 91 | 41 | 1.0 | 4.0 | 0.00 | 0.00 | 0.00 | 36 | 1013.7 |
| 20260830014149 | 91 | 130 | 2.0 | 3.0 | 0.00 | 0.00 | 0.00 | 35 | 1013.2 |
| 20260830013644 | 92 | 28 | 1.0 | 4.0 | 0.00 | 0.00 | 0.00 | 35 | 1013.3 |
| 20260830013140 | 92 | 192 | 0.0 | 5.0 | 0.00 | 0.00 | 0.00 | 34 | 1013.1 |
| 20260830012639 | 92 | 55 | 1.0 | 4.0 | 0.00 | 0.00 | 0.00 | 34 | 1013.1 |